This demonstration page uses our WeatherBlox Daily Observations layout. Learn more.

Left ArrowRight Arrow

Hourly Observations for January 26, 2017

Temp ( °F °C ) Dew Point ( °F °C ) Humidity (%) Winds ( mph kmh ) Pressure ( in mb ) Visibility ( mi km ) Precip ( " mm )
12:52 am 00:52 Cloudy 32 0 23 -5 69 69 WNW 12 19 30.00 1016 10 16 0.00 0.00
1:52 am 01:52 Cloudy 32 0 22 -5.6 66 66 NW 10 17 30.02 1017 10 16 0.00 0.00
2:52 am 02:52 Cloudy 31 -0.6 22 -5.6 69 69 NW 13 20 30.04 1017 10 16 0.00 0.00
3:52 am 03:52 Cloudy 31 -0.6 23 -5 72 72 NW 10 17 30.04 1017 10 16 0.00 0.00
4:52 am 04:52 Cloudy 30 -1.1 22 -5.6 72 72 NW 13 20 30.06 1018 10 16 0.00 0.00
5:52 am 05:52 Cloudy 29 -1.7 21 -6.1 72 72 NW 12 19 30.08 1019 10 16 0.00 0.00
6:52 am 06:52 Cloudy 29 -1.7 21 -6.1 72 72 WNW 13 20 30.10 1019 10 16 0.00 0.00
7:52 am 07:52 Cloudy 29 -1.7 20 -6.7 69 69 NW 9 15 30.11 1020 10 16 0.00 0.00
8:52 am 08:52 Cloudy 30 -1.1 21 -6.1 69 69 WNW 9 15 30.14 1021 10 16 0.00 0.00
9:27 am 09:27 Cloudy 30 -1.1 20 -6.7 66 66 NW 16 26 30.21 1023 10 16 0.00 0.00
9:38 am 09:38 Cloudy 31 -0.6 20 -6.7 64 64 NW 12 19 30.21 1023 10 16 0.00 0.00
9:52 am 09:52 Cloudy 31 -0.6 20 -6.7 64 64 WNW 12 19 30.16 1021 10 16 0.00 0.00
10:31 am 10:31 Cloudy 32 0 21 -6.1 64 64 WNW 10 17 30.24 1024 10 16 0.00 0.00
10:52 am 10:52 Cloudy 32 0 21 -6.1 64 64 W 9 15 30.18 1022 10 16 0.00 0.00
11:08 am 11:08 Cloudy 34 1 21 -6 60 60 WNW 12 19 30.21 1023 10 16 0.00 0.00
11:33 am 11:33 Cloudy 33 0.6 22 -5.6 64 64 W 12 19 30.21 1023 10 16 0.00 0.00
11:52 am 11:52 Cloudy 34 1.1 21 -6.1 59 59 WNW 13 20 30.17 1022 10 16 0.00 0.00
12:52 pm 12:52 Cloudy 35 1.7 20 -6.7 54 54 undefined N/A 30.15 1021 10 16 0.00 0.00
1:52 pm 13:52 Cloudy 34 1.1 19 -7.2 54 54 NW 16 26 30.15 1021 10 16 0.00 0.00
2:52 pm 14:52 Cloudy 34 1.1 20 -6.7 56 56 WNW 14 22 30.16 1021 10 16 0.00 0.00
3:52 pm 15:52 Cloudy 33 0.6 19 -7.2 56 56 WNW 10 17 30.17 1022 10 16 0.00 0.00
4:52 pm 16:52 Cloudy 33 0.6 19 -7.2 56 56 WNW 9 15 30.19 1022 10 16 0.00 0.00
5:52 pm 17:52 Cloudy 33 0.6 19 -7.2 56 56 WNW 10 17 30.19 1022 10 16 0.00 0.00
6:52 pm 18:52 Cloudy 32 0 19 -7.2 59 59 WSW 8 13 30.19 1022 10 16 0.00 0.00
7:52 pm 19:52 Cloudy 32 0 19 -7 60 60 W 9 15 30.24 1024 10 16 0.00 0.00
8:52 pm 20:52 Cloudy 32 0 20 -6.7 61 61 W 9 15 30.19 1022 10 16 0.00 0.00
9:52 pm 21:52 Cloudy 32 0 19 -7.2 59 59 W 9 15 30.18 1022 10 16 0.00 0.00
10:52 pm 22:52 Mostly Clear 31 -0.6 18 -7.8 59 59 W 9 15 30.19 1022 10 16 0.00 0.00
11:52 pm 23:52 Clear 29 -1.7 18 -7.8 63 63 WSW 8 13 30.18 1022 10 16 0.00 0.00

Powered by AerisWeather